カタログに戻る

STARLINK-2234

運用中通信VLEO
NORAD 48580·PAYLOAD·🇺🇸 United States

打ち上げ May 15, 2021 から Cape Canaveral Space Force Station

Loading…

次のパス (今後24時間)

TLE

最新Source: CelesTrak SupGP

元期: Sep 14, 2026, 21:04 UTC

1 48580C 21041AD  26257.87826389  .00002662  00000+0  85587-4 0  2575
2 48580  53.1586 300.5739 0001275  80.3420 145.9412 15.31701808    15

AllMySatでSTARLINK-2234をリアルタイム追跡

Download on the App Store